Home   Weather   Safed   Past weeks

Flag for Israel Past Weather in Safed, Israel — Yesterday and Last 2 Weeks

Now
82 °F

Passing clouds.


Feels Like: 88 °F
Forecast: 72 / 85 °F
Wind: 6 mph from Southeast

Location: Beirut Airport

Current Time: Jul 25, 2017 at 3:54:04 am

Latest Report: Jul 25, 2017 at 3:00 am


Visibility: 4 mi

Pressure: 29.68 "Hg (27.19 "Hg at 772m altitude)

Humidity: 74%

Dew Point: 73 °F

Location of SafedLocation

Past Weather in Safed — Graph

°F

Safed Temperature Yesterday

Maximum temperature yesterday: 88 °F (at 1:00 pm)
Minimum temperature yesterday: 79 °F (at 5:00 am)
Average temperature yesterday: 84 °F

High & Low Weather Summary for the Past Weeks

 TemperatureHumidityPressure
High88 °F (Jul 10, 8:00 am)84% (Jul 14, 8:00 pm)29.89 "Hg (Jul 14, 8:00 pm)
Low79 °F (Jul 13, 3:00 am)33% (Jul 10, 8:00 am)29.62 "Hg (Jul 13, 5:00 pm)
Average84 °F68%29.75 "Hg
* Reported Jul 10 2:00 am — Jul 25 2:00 am, Safed. Weather by CustomWeather, © 2017

Note: Actual official high and low records may vary slightly from our data, if they occured in-between our weather recording intervals... More about our weather records

Advertising

Safed Weather History for the Previous 24 Hours

Scroll right to see more
 ConditionsComfort  
Time TempWeatherWind HumidityBarometerVisibility
2:00 am
Tue, Jul 25
82 °FPassing clouds.1 mph79%29.68 "Hg4 mi
1:00 am82 °FPassing clouds.2 mph84%29.68 "Hg4 mi
12:00 am82 °FPassing clouds.2 mph84%29.71 "Hg4 mi
11:00 pm
Mon, Jul 24
82 °FPassing clouds.3 mph84%29.68 "Hg4 mi
10:00 pm82 °FPassing clouds.3 mph84%29.68 "Hg4 mi
9:00 pm82 °FPassing clouds.3 mph79%29.68 "Hg5 mi
8:00 pm84 °FPassing clouds.5 mph74%29.68 "Hg5 mi
7:00 pm84 °FScattered clouds.5 mph74%29.68 "Hg5 mi
6:00 pm86 °FScattered clouds.6 mph70%29.68 "Hg5 mi
5:00 pm88 °FScattered clouds.8 mph66%29.68 "Hg5 mi
4:00 pm86 °FScattered clouds.8 mph70%29.68 "Hg5 mi
3:00 pm86 °FScattered clouds.7 mph66%29.68 "Hg5 mi
2:00 pm88 °FPassing clouds.9 mph66%29.71 "Hg4 mi
1:00 pm88 °FPassing clouds.8 mph62%29.71 "Hg4 mi
12:00 pm86 °FPassing clouds.8 mph66%29.71 "Hg4 mi
11:00 am86 °FPassing clouds.9 mph66%29.74 "Hg4 mi
10:00 am84 °FPassing clouds.9 mph70%29.74 "Hg4 mi
9:00 am84 °FFog.9 mph70%29.71 "Hg3 mi
8:00 am82 °FFog.7 mph74%29.71 "Hg3 mi
7:00 am81 °FFog.3 mph70%29.71 "Hg3 mi
6:00 am81 °FFog.3 mph70%29.71 "Hg3 mi
5:00 am79 °FPassing clouds.1 mph74%29.71 "Hg4 mi
4:00 am81 °FPassing clouds.6 mph74%29.71 "Hg4 mi
3:00 am81 °FPassing clouds.3 mph74%29.74 "Hg4 mi
Weather by CustomWeather, © 2017

See weather overviewHow to use our weather pages